Location: T. Spence Memorial Observatory
(32.7356°N, 82.2098°W)
Time: 05:58:07
(UTC-04:00)

Daily predictions for brighter satellites

Satellite Brightness Start Highest point End
(mag) Time Altitude Azimuth Time Altitude Azimuth Time Altitude Azimuth
CZ-2D R/B 4.3 03:21:43 10° NE 03:23:57 20° ENE 03:23:57 20° ENE
CZ-4C R/B 4.3 03:33:52 19° N 03:33:52 19° N 03:36:05 10° N
Cosmos 2369 Rocket 3.7 03:37:02 10° N 03:41:29 32° NE 03:41:29 32° NE
ARIANE 5 R/B 4.4 03:37:49 10° NNE 03:40:24 28° NE 03:40:24 28° NE
USA 234 3.7 03:42:48 10° NE 03:47:57 57° NNE 03:47:57 57° NNE
SL-16 R/B 3.2 03:52:07 50° ENE 03:52:07 50° ENE 03:57:55 10° N
Resurs 1-4 Rocket 3.3 03:55:19 10° NNE 03:58:41 39° NE 03:58:41 39° NE
Cosmos 1943 Rocket 4.5 04:00:42 10° N 04:04:56 21° ENE 04:09:08 10° ESE
Cosmos 1709 Rocket 4.2 04:10:32 10° N 04:16:51 66° E 04:17:25 63° ESE
NOSS 3-3 (A) 4.4 04:10:29 10° NNW 04:18:09 89° ENE 04:26:10 10° SSE
NOSS 3-3 (C) 4.4 04:10:35 10° NNW 04:18:14 88° ENE 04:26:16 10° SSE
CENTAUR R/B 2.8 04:19:17 57° ESE 04:19:18 57° ESE 04:25:42 10° NE
ATLAS 5 CENTAUR R/B 2.6 04:33:28 44° N 04:33:28 44° N 04:37:11 10° NNE
Cosmos 1733 Rocket 4.1 04:28:40 10° N 04:32:10 43° NE 04:32:10 43° NE
ARGOS Delta rocket 4.4 04:31:37 10° NNE 04:35:21 49° ENE 04:35:21 49° ENE
Cosmos 839 Rocket 4.1 04:41:29 10° NNW 04:48:58 62° WSW 04:49:55 56° SSW
Cosmos 1933 4.0 04:55:33 49° ESE 04:56:00 52° E 05:00:00 10° NNE
CZ-4B R/B 3.5 04:55:33 10° NNE 04:59:07 46° E 04:59:28 45° ESE
Okean O Rocket 1.5 04:59:17 10° NNE 05:03:46 89° WNW 05:04:08 75° SSW
CZ-2D R/B 4.2 04:59:45 10° N 05:03:05 43° NW 05:03:05 43° NW
CZ-2D R/B 3.2 05:01:35 10° N 05:05:16 28° NW 05:05:16 28° NW
Atlas Centaur 2 2.7 05:07:31 29° SSE 05:07:41 29° SSE 05:12:04 10° E
Cosmos 1302 Rocket 4.0 05:03:01 10° NNW 05:07:50 54° W 05:07:50 54° W
Okean-O 4.4 05:04:57 10° NE 05:08:49 29° E 05:12:40 10° SSE
COSMOS 2406 3.1 05:08:58 44° SSW 05:10:56 85° WNW 05:16:43 10° NNE
Cosmos 1703 Rocket 3.8 05:12:39 31° S 05:14:43 70° E 05:19:11 10° NNE
Cosmos 389 Rocket 4.0 05:17:29 24° NNW 05:17:29 24° NNW 05:19:14 10° N
Sich 1 Rocket 3.4 05:14:45 10° N 05:19:09 86° W 05:22:01 22° S
ARIANE 5 R/B 4.4 05:18:30 10° NNW 05:20:44 15° NW 05:20:44 15° NW
Cosmos 1455 4.5 05:26:13 13° NW 05:26:13 13° NW 05:26:59 10° NNW
SeaSat 1 2.3 05:20:18 10° SSE 05:25:13 79° WSW 05:30:10 10° NNW
Cosmos 2369 Rocket 3.7 05:21:13 10° NW 05:23:07 19° WNW 05:23:07 19° WNW
CZ-4B DEB 4.1 05:23:21 10° N 05:28:48 75° WNW 05:32:22 22° SSW
CZ-4B R/B 3.1 05:25:03 10° N 05:30:17 65° WNW 05:33:13 26° SSW
Geosat 4.0 05:30:38 10° NNE 05:35:41 86° ESE 05:39:22 19° SSW
SL-16 R/B 3.9 05:37:14 19° WNW 05:37:14 19° WNW 05:40:13 10° NW
COSMOS 2487 2.9 05:35:36 20° S 05:37:55 61° ESE 05:41:30 10° NNE
Resurs 1-4 Rocket 3.9 05:37:14 10° NW 05:39:46 14° WNW 05:39:46 14° WNW
PSLV R/B 3.6 05:35:54 10° NNE 05:40:18 80° ESE 05:44:41 10° S
CZ-2C R/B 3.8 05:37:47 14° S 05:41:26 47° W 05:45:42 10° NNW
GPS 2-05 Rocket1 2.8 05:43:30 41° SW 05:44:28 65° SSE 05:47:44 10° ENE
Cosmos 1943 Rocket 2.4 05:43:30 10° NW 05:48:51 45° WSW 05:54:09 10° S
Cosmos 1190 Rocket 4.0 05:45:57 18° SSW 05:49:50 65° WNW 05:55:00 10° N
Thor Agena Rocket 3.4 05:46:11 10° S 05:51:15 70° WSW 05:56:26 10° NNW
Okean 1-7 3.0 05:49:17 12° SSW 05:53:14 64° W 05:57:32 10° N
Intelsat 3F5 C 4.0 05:52:55 39° SW 05:53:25 47° S 05:55:52 10° ESE
ADEOS II 2.1 05:49:29 10° NNE 05:54:46 90° W 06:00:01 10° SSW
Nadezhda 1 Rocket 4.3 05:49:29 12° SSW 05:54:57 47° W 06:01:03 10° N
Okean 2 Rocket 3.1 05:52:13 10° N 05:56:44 88° W 06:01:15 10° S
Cosmos 1408 3.2 05:54:04 10° NNW 05:57:30 35° W 06:00:54 10° SSW
Aureole 3 Rocket 4.2 05:53:22 10° SSW 06:00:52 52° W 06:06:17 10° N
Cosmos 1992 Rocket 4.0 05:58:25 10° NNW 06:03:32 58° WSW 06:08:38 10° S
Meteor 1-31 Rocket 3.3 06:00:26 10° NNE 06:04:12 61° E 06:07:57 10° S
Cosmos 1825 3.1 06:01:58 10° NNW 06:05:13 27° W 06:08:28 10° SSW
Centaur D-1A AC-31 2.0 05:58:26 14° W 06:05:58 51° SSW 06:09:27 10° ESE
Cosmos 2181 Rocket 4.1 06:00:16 10° S 06:06:43 88° E 06:13:10 10° N
ADEOS Rocket 3.6 06:00:51 10° N 06:08:32 66° WNW 06:16:05 10° SSW
Cosmos 1954 Rocket 4.1 06:04:10 10° SSW 06:09:19 83° ESE 06:14:32 10° NNE
CENTAUR R/B 3.9 06:06:29 13° W 06:10:25 23° NW 06:15:39 10° N
CSL-04 DEB 4.5 06:10:16 10° N 06:14:28 72° WNW 06:18:46 10° SSW
COBE Rocket 4.5 06:13:14 10° NNE 06:18:22 65° E 06:23:23 10° S
Cosmos 1782 Rocket 4.1 06:14:51 10° NNW 06:18:48 35° W 06:22:45 10° SSW
AVUM R/B 4.1 06:17:06 13° WSW 06:19:26 31° WNW 06:22:25 10° N
Cosmos 1656 Rocket 3.7 06:14:53 10° NNW 06:20:08 53° WSW 06:25:22 10° S
BREEZE-M DEB (TANK) 4.4 06:00:14 10° WNW 06:22:12 89° NE 06:27:05 10° SE
Cosmos 2154 Rocket 4.2 06:20:57 10° NNW 06:27:02 50° W 06:33:07 10° SSW
Centaur D-1AR AC-36 3.6 06:21:28 10° WSW 06:27:23 22° S 06:30:21 10° SE
Cosmos 676 Rocket 4.3 06:22:34 10° SW 06:27:32 48° WNW 06:32:34 10° N
Timation 2 Rocket 4.4 06:22:12 10° S 06:28:28 69° ESE 06:34:31 10° NNE
COSMO-SKYMED 1 3.6 06:32:49 10° SSE 06:37:02 53° ENE 06:41:16 10° N
CZ-4 R/B 4.3 06:35:15 10° NE 06:37:50 17° E 06:40:23 10° SE
CSL-04 Rocket 4.5 06:33:20 10° NNE 06:38:38 56° E 06:43:49 10° S
